Location: City of Moscow
(46.7306°N, 116.9989°W)
Time: 14:33:05
(UTC+00:00)

CUBEBUG 2 - Pass Details

Date: 22 April 2026
Orbit: 546 x 628 km, 97.9° (Epoch: 15 May)

Event Time Altitude Azimuth Distance (km) Brightness Sun altitude
Rises 09:50:51 0° 18° (NNE) 2,848 ? -24.8°
Reaches altitude 10° 09:53:07 10° 25° (NNE) 1,926 ? -24.5°
Maximum altitude 09:57:08 45° 99° (E) 796 ? -24.2°
Enters shadow 09:57:32 43° 117° (ESE) 813 ? -24.1°
